AirNav   ATP
 
 408 users online  

KLVN Airlake Airport
Minneapolis, Minnesota, USA

GOING TO MINNEAPOLIS?


FAA INFORMATION EFFECTIVE 11 OCTOBER 2018

Location

FAA Identifier: LVN
Lat/Long: 44-37-40.3000N / 093-13-41.1000W
44-37.671667N / 093-13.685000W
44.6278611 / -93.2280833
(estimated)
Elevation: 960.6 ft. / 292.8 m (surveyed)
Variation: 03E (1995)
From city: 22 miles S of MINNEAPOLIS, MN
Time zone: UTC -5 (UTC -6 during Standard Time)
Zip code: 55044

Airport Operations

Airport use: Open to the public
Activation date: 12/1966
Control tower: no
ARTCC: MINNEAPOLIS CENTER
FSS: PRINCETON FLIGHT SERVICE STATION
NOTAMs facility: LVN (NOTAM-D service available)
Attendance: MON-FRI 0800-1800, ALL SAT-SUN 0800-1700
Pattern altitude: 1760.6 ft. MSL
Wind indicator: lighted
Segmented circle: no
Lights: ACTVT MALSR RWY 30; REIL RWY 12; PAPI RWY 12, 30; HIRL RWY 12/30 PRESET TO LOW SS-SR: INCR INTST AND ACTVT - CTAF.
Beacon: white-green (lighted land airport)
Operates sunset to sunrise.

Airport Communications

CTAF/UNICOM: 123.0
WX AWOS-3: 118.0 (952-469-5850)
MINNEAPOLIS APPROACH: 134.7
MINNEAPOLIS DEPARTURE: 134.7
CLEARANCE DELIVERY: 118.95
WX AWOS-3 at SYN (13 nm SE): 119.35 (507-664-3806)
WX ASOS at MSP (15 nm N): PHONE 612-713-4174
WX ASOS at FCM (15 nm NW): PHONE 952-941-4156
WX AWOS-3 at SGS (16 nm NE): 119.425 (651-457-8120)
WX AWOS-3 at FBL (18 nm S): 111.2 (507-332-2505)
WX ASOS at STP (20 nm N): PHONE 651-298-1410
  • COMMUNICATIONS PROVIDED BY PRINCETON RADIO ON FREQ 122.1R (FARMINGTON RCO).

Nearby radio navigation aids

VOR radial/distance  VOR name  Freq  Var
FGTr259/2.0FARMINGTON VORTAC115.7006E
FCMr141/15.0FLYING CLOUD VOR/DME117.7001E
MSPr177/16.1MINNEAPOLIS VOR/DME115.3002E
FOWr012/26.1HALFWAY VOR/DME111.2002E
GEPr163/31.7GOPHER VORTAC117.3006E
MKTr043/38.2MANKATO VOR/DME110.8007E

 
NDB name  Hdg/Dist  Freq  Var  ID
HOPEY217/19.140003EPPI .--. .--. ..
GLENCOE099/37.540703EGYL --. -.-- .-..

Airport Services

Fuel available: 100LL JET-A
JET A FUEL SELF SERVE NOT AVBL.
100LL SELF SERVICE FUEL AVBL 24 HRS WITH CREDIT CARD.
Parking: hangars and tiedowns
Airframe service: MAJOR
Powerplant service: MAJOR
Bottled oxygen: LOW

Runway Information

Runway 12/30

Dimensions: 4099 x 75 ft. / 1249 x 23 m
REPAINTED. DISPLACEMENT ON 'NW' END NOW TAXIWAY.
Surface: asphalt, in good condition
Weight bearing capacity: 
Single wheel: 31.0
Double wheel: 47.0
Runway edge lights: high intensity
RUNWAY 12  RUNWAY 30
Latitude: 44-37.827068N44-37.516258N
Longitude: 093-14.104925W093-13.266448W
Elevation: 960.6 ft.951.4 ft.
Traffic pattern: rightleft
Runway heading: 114 magnetic, 117 true294 magnetic, 297 true
Displaced threshold: no392 ft.
Declared distances: LDA:4099LDA:3707
Markings: nonprecision, in good conditionprecision, in good condition
Visual slope indicator: 4-light PAPI on left (3.00 degrees glide path)4-light PAPI on right (3.00 degrees glide path)
Approach lights: MALSR: 1,400 foot medium intensity approach lighting system with runway alignment indicator lights
Runway end identifier lights: yes
Touchdown point: yes, no lightsyes, no lights
Instrument approach: ILS
Obstructions: 31 ft. rr, 679 ft. from runway, 366 ft. right of centerline, 15:1 slope to clear
RWY 12 HAS 9 FT PILE OF DIRT 192 FT FROM THE RWY END AND 345 FT R.
25 ft. road, 801 ft. from runway, 315 ft. right of centerline, 24:1 slope to clear
RY 30 47:1 TO DSPLCD THLD.

Airport Ownership and Management from official FAA records

Ownership: Publicly-owned
Owner: METRO ARPTS CMSN
6040 28TH AVE SO.
MINNEAPOLIS, MN 55450
Phone 612-726-8100
Manager: MIKE WILSON
8140 220TH STREET W.
LAKEVILLE, MN 55044
Phone 763-537-2058
MIKE. WILSON@MSPMAC.ORG. MAINT SUPVR 612-919-3509, MON-FRI 0600-1430.

Airport Operational Statistics

Aircraft based on the field: 133
Single engine airplanes: 123
Multi engine airplanes: 6
Jet airplanes: 4
    
Aircraft operations: avg 94/day *
55% transient general aviation
40% local general aviation
4% air taxi
<1% military
* for 12-month period ending 30 September 2017

Additional Remarks

DEER, BIRDS & WILDLIFE ON & INVOF ARPT.
ULTRALIGHT OPNS PROHIBITED.
HANGARS 400 FT NORTH FM CENTERLINE IN PRIMARY SURFACE.
FOR NOISE ABATEMENT PROCS, WWW.MACNOISE.COM/PILOTS. ACFT PLS FLW VOLUNTARY NOISE ABATEMENT PROCS.
RY 30 DSGND AS CALM WND RY.

Instrument Procedures

NOTE: All procedures below are presented as PDF files. If you need a reader for these files, you should download the free Adobe Reader.

NOT FOR NAVIGATION. Please procure official charts for flight.
FAA instrument procedures published for use from 11 October 2018 at 0901Z to 8 November 2018 at 0900Z.

 
STARs - Standard Terminal Arrivals
AGUDE FIVE   download (248KB)
ENCEE TWO (RNAV)   download (153KB)
GOPHER ONE   download (273KB)
TWOLF THREE   2 pages: [1] [2] (293KB)
 
IAPs - Instrument Approach Procedures
ILS OR LOC RWY 30 **CHANGED**   download (211KB)
RNAV (GPS) RWY 12 **CHANGED**   download (208KB)
RNAV (GPS) RWY 30 **CHANGED**   download (276KB)
VOR RWY 12 **CHANGED**   download (214KB)
NOTE: Special Alternate Minimums apply **CHANGED**   download (81KB)
NOTE: Special Take-Off Minimums/Departure Procedures apply   download (156KB)

Other nearby airports with instrument procedures:

KMSP - Minneapolis-St Paul International/Wold-Chamberlain Airport (15 nm N)
KFCM - Flying Cloud Airport (15 nm NW)
KSGS - South St Paul Municipal Airport-Richard E Fleming Field (16 nm NE)
KFBL - Faribault Municipal Airport-Liz Wall Strohfus Field (18 nm S)
KSTP - St. Paul Downtown Airport / Holman Field (20 nm N)
 
Loc | Ops | Rwys | IFR | FBO | Links
Com | Nav | Svcs | Stats | Notes


 
Area around KLVN (Airlake Airport)
 
Road maps at: MapQuest Bing Google
 
Aerial photo
WARNING: Photo may not be current or correct
Aerial photo of KLVN (Airlake Airport)
Photo taken 24-Nov-2012

Do you have a better or more recent aerial photo of Airlake Airport that you would like to share? If so, please send us your photo.

 
Sectional chart

 
Airport distance calculator
Flying to Airlake Airport? Find the distance to fly.

From to KLVN

Sunrise and sunset
Times for 16-Oct-2018
 Local
(UTC-5)
 Zulu
(UTC)
Morning civil twilight07:0112:01
Sunrise07:3112:31
Sunset18:2623:26
Evening civil twilight18:5623:56

Current date and time
Zulu (UTC)  16-Oct-2018 06:33:45
Local (UTC-5)  16-Oct-2018 01:33:45
 
METAR
KLVN 160615Z AUTO 24007KT 193V263 10SM OVC070 05/M02 A2999 RMK AO2
KSYN 
13nm SE 
160615Z AUTO 25012G20KT 220V290 10SM OVC080 05/M03 A3000 RMK AO2 T00451029
KSGS 
14nm N 
160615Z AUTO 22009G15KT 10SM SCT070 OVC080 06/M04 A2998 RMK AO2 T00571041
KMSP 
15nm N 
160553Z 23015G23KT 10SM OVC075 06/M04 A2999 RMK AO2 SLP160 T00561039 10056 20050 400721011 58027
KFCM 
16nm NW 
160553Z AUTO 22010G19KT 10SM BKN075 OVC090 05/M04 A2998 RMK AO2 SLP159 T00501039 10056 20039 400721017 58027
KSTP 
20nm N 
160553Z AUTO 23011G20KT 10SM BKN080 OVC090 06/M04 A3000 RMK AO2 SLP162 T00561044 10056 20022 400671006 58027
TAF
KMSP 
15nm N 
160520Z 1606/1712 22011G20KT P6SM BKN100 WS020/25040KT FM161000 24011KT P6SM BKN110 FM161500 29016G25KT P6SM SCT025 BKN035 FM170000 31011G17KT P6SM FEW050
NOTAMs
Click for the latest NOTAMs
NOTAMs are issued by the DoD/FAA and will open in a separate window not controlled by AirNav.

 

 
 

FBO, Fuel Providers, and Aircraft Ground Support

  
 Business Name 
 
 Contact 
 
 Services / Description 
 
Fuel Prices
 
Comments
  
 Waypoint Flight Services
952-469-4414
954-908-7880
[web site]
[email]
Airport management, Aviation fuel, Aircraft parking (ramp or tiedown), Hangars, Hangar leasing / sales, Passenger terminal and lounge, Flight training, ...
 
CAA Preferred FBO   AVTRIP  
 
More info about Waypoint Flight Services
Avfuel
100LL Jet A
FS $5.19 $5.30 
SS $5.19 --- 
 Updated 15-Oct-2018
 
   3 read write
FS=Full service
SS=Self service
Update Fuel Prices
 

Aviation Businesses, Services, and Facilities

  
 Business Name 
 
 Contact 
 
 Services / Description 
 
Distance
 
Comments
  
Air Trek North 952-594-1184
[web site]
[email]
Oxygen service, Flight training, Aircraft rental, Aircraft maintenance, Internet access

More info about Air Trek North
on airport  
   write
 

Would you like to see your business listed on this page?

 If your business provides an interesting product or service to pilots, flight crews, aircraft, or users of the Airlake Airport, you should consider listing it here.  To start the listing process, click on the button below
 
Add a business
 

Other Pages about Airlake Airport

www.metroairports.org/...
 
Update a link
 
Copyright © AirNav, LLC. All rights reserved. Privacy Policy  Contact